| time (UTC) | temp C | wind direction | speed KPH | gust KPH | rain 1hr cm | rain 24hr cm | rain mn cm | humidity % | barometer mb |
| 20260505231209 | 29 | 281 | 4.8 | 8.0 | 0.00 | 0.00 | 0.00 | 53 | 1004.6 |
| 20260505230706 | 29 | 240 | 3.2 | 9.7 | 0.00 | 0.00 | 0.00 | 52 | 1004.4 |
| 20260505230203 | 29 | 7 | 3.2 | 8.0 | 0.00 | 0.00 | 0.00 | 52 | 1004.2 |
| 20260505225659 | 30 | 299 | 3.2 | 14.5 | 0.00 | 0.00 | 0.00 | 50 | 1004.2 |
| 20260505225156 | 30 | 48 | 3.2 | 19.3 | 0.00 | 0.00 | 0.00 | 49 | 1004.0 |
| 20260505224651 | 30 | 350 | 3.2 | 14.5 | 0.00 | 0.00 | 0.00 | 49 | 1004.1 |
| 20260505224150 | 31 | 256 | 8.0 | 14.5 | 0.00 | 0.00 | 0.00 | 47 | 1004.1 |
| 20260505223647 | 32 | 266 | 8.0 | 9.7 | 0.00 | 0.00 | 0.00 | 49 | 1004.0 |
| 20260505223142 | 32 | 208 | 4.8 | 6.4 | 0.00 | 0.00 | 0.00 | 50 | 1003.6 |
| 20260505222638 | 32 | 187 | 3.2 | 8.0 | 0.00 | 0.00 | 0.00 | 50 | 1003.5 |
| 20260505222135 | 32 | 254 | 3.2 | 6.4 | 0.00 | 0.00 | 0.00 | 50 | 1003.6 |
| 20260505221632 | 33 | 242 | 0.0 | 3.2 | 0.00 | 0.00 | 0.00 | 51 | 1003.7 |
| 20260505221128 | 32 | 269 | 0.0 | 9.7 | 0.00 | 0.00 | 0.00 | 53 | 1003.7 |
| 20260505220626 | 32 | 204 | 3.2 | 14.5 | 0.00 | 0.00 | 0.00 | 52 | 1003.5 |
| 20260505220123 | 31 | 241 | 4.8 | 8.0 | 0.00 | 0.00 | 0.00 | 53 | 1003.7 |
| 20260505215621 | 32 | 241 | 4.8 | 8.0 | 0.00 | 0.00 | 0.00 | 53 | 1003.9 |
| 20260505215119 | 32 | 304 | 0.0 | 9.7 | 0.00 | 0.00 | 0.00 | 53 | 1003.8 |
| 20260505214617 | 32 | 241 | 12.9 | 14.5 | 0.00 | 0.00 | 0.00 | 51 | 1003.8 |
| 20260505214114 | 32 | 177 | 3.2 | 17.7 | 0.00 | 0.00 | 0.00 | 53 | 1003.8 |
| 20260505213611 | 31 | 246 | 4.8 | 17.7 | 0.00 | 0.00 | 0.00 | 54 | 1003.9 |
| 20260505213107 | 32 | 223 | 6.4 | 8.0 | 0.00 | 0.00 | 0.00 | 51 | 1004.1 |
| 20260505212603 | 32 | 238 | 6.4 | 19.3 | 0.00 | 0.00 | 0.00 | 53 | 1004.2 |
| 20260505212101 | 32 | 208 | 6.4 | 8.0 | 0.00 | 0.00 | 0.00 | 52 | 1004.1 |
| 20260505211553 | 31 | 204 | 3.2 | 14.5 | 0.00 | 0.00 | 0.00 | 54 | 1004.4 |
| 20260505211050 | 32 | 266 | 11.3 | 11.3 | 0.00 | 0.00 | 0.00 | 52 | 1004.1 |
| 20260505210546 | 32 | 220 | 6.4 | 11.3 | 0.00 | 0.00 | 0.00 | 51 | 1004.3 |
| 20260505210044 | 31 | 207 | 8.0 | 14.5 | 0.00 | 0.00 | 0.00 | 55 | 1004.1 |
| 20260505205541 | 31 | 227 | 17.7 | 17.7 | 0.00 | 0.00 | 0.00 | 56 | 1004.2 |
| 20260505205038 | 31 | 234 | 3.2 | 12.9 | 0.00 | 0.00 | 0.00 | 57 | 1004.3 |
| 20260505204536 | 31 | 228 | 3.2 | 9.7 | 0.00 | 0.00 | 0.00 | 59 | 1004.4 |
| 20260505204033 | 30 | 200 | 6.4 | 17.7 | 0.00 | 0.00 | 0.00 | 59 | 1004.4 |
| 20260505203529 | 31 | 187 | 9.7 | 17.7 | 0.00 | 0.00 | 0.00 | 58 | 1004.7 |
| 20260505203027 | 32 | 240 | 6.4 | 8.0 | 0.00 | 0.00 | 0.00 | 57 | 1004.7 |
| 20260505202523 | 31 | 239 | 11.3 | 24.1 | 0.00 | 0.00 | 0.00 | 58 | 1004.7 |
| 20260505202019 | 31 | 226 | 3.2 | 11.3 | 0.00 | 0.00 | 0.00 | 60 | 1004.8 |
| 20260505201516 | 31 | 112 | 3.2 | 19.3 | 0.00 | 0.00 | 0.00 | 60 | 1004.6 |
| 20260505201013 | 30 | 220 | 3.2 | 11.3 | 0.00 | 0.00 | 0.00 | 60 | 1004.7 |
| 20260505200511 | 30 | 219 | 12.9 | 14.5 | 0.00 | 0.00 | 0.00 | 60 | 1004.6 |
| 20260505200008 | 31 | 171 | 8.0 | 8.0 | 0.00 | 0.00 | 0.00 | 58 | 1004.8 |
| 20260505195503 | 30 | 231 | 9.7 | 17.7 | 0.00 | 0.00 | 0.00 | 61 | 1004.6 |
| 20260505195001 | 30 | 215 | 6.4 | 14.5 | 0.00 | 0.00 | 0.00 | 60 | 1004.7 |
| 20260505194458 | 30 | 244 | 3.2 | 9.7 | 0.00 | 0.00 | 0.00 | 60 | 1004.6 |
| 20260505193958 | 30 | 211 | 12.9 | 16.1 | 0.00 | 0.00 | 0.00 | 60 | 1005.0 |
| 20260505193456 | 30 | 221 | 3.2 | 16.1 | 0.00 | 0.00 | 0.00 | 61 | 1005.0 |
| 20260505192953 | 30 | 223 | 11.3 | 20.9 | 0.00 | 0.00 | 0.00 | 61 | 1004.8 |
| 20260505192452 | 29 | 226 | 4.8 | 17.7 | 0.00 | 0.00 | 0.00 | 63 | 1004.8 |
| 20260505191948 | 30 | 239 | 8.0 | 25.7 | 0.00 | 0.00 | 0.00 | 63 | 1004.8 |
| 20260505191447 | 30 | 199 | 4.8 | 17.7 | 0.00 | 0.00 | 0.00 | 63 | 1004.9 |
| 20260505190943 | 30 | 164 | 1.6 | 8.0 | 0.00 | 0.00 | 0.00 | 63 | 1004.8 |
| 20260505190438 | 30 | 197 | 3.2 | 12.9 | 0.00 | 0.00 | 0.00 | 62 | 1004.8 |
| 20260505185934 | 29 | 30 | 1.6 | 9.7 | 0.00 | 0.00 | 0.00 | 65 | 1005.0 |
| 20260505185432 | 28 | 193 | 11.3 | 20.9 | 0.00 | 0.00 | 0.00 | 66 | 1005.0 |
| 20260505184928 | 28 | 200 | 3.2 | 14.5 | 0.00 | 0.00 | 0.00 | 65 | 1005.0 |
| 20260505184425 | 28 | 220 | 4.8 | 16.1 | 0.00 | 0.00 | 0.00 | 66 | 1005.1 |
| 20260505183922 | 28 | 275 | 6.4 | 22.5 | 0.00 | 0.00 | 0.00 | 66 | 1005.0 |
| 20260505183419 | 28 | 210 | 6.4 | 17.7 | 0.00 | 0.00 | 0.00 | 66 | 1005.2 |
| 20260505182915 | 28 | 220 | 14.5 | 25.7 | 0.00 | 0.00 | 0.00 | 66 | 1005.0 |
| 20260505182412 | 28 | 208 | 11.3 | 17.7 | 0.00 | 0.00 | 0.00 | 66 | 1005.0 |
| 20260505181908 | 28 | 204 | 9.7 | 9.7 | 0.00 | 0.00 | 0.00 | 66 | 1005.1 |
| 20260505181406 | 28 | 226 | 3.2 | 16.1 | 0.00 | 0.00 | 0.00 | 67 | 1005.3 |
| 20260505180903 | 28 | 216 | 8.0 | 16.1 | 0.00 | 0.00 | 0.00 | 67 | 1005.1 |
| 20260505180359 | 28 | 223 | 11.3 | 12.9 | 0.00 | 0.00 | 0.00 | 66 | 1005.2 |
| 20260505175856 | 28 | 226 | 8.0 | 24.1 | 0.00 | 0.00 | 0.00 | 68 | 1005.0 |
| 20260505175352 | 27 | 245 | 6.4 | 30.6 | 0.00 | 0.00 | 0.00 | 68 | 1005.0 |
| 20260505174848 | 28 | 170 | 3.2 | 14.5 | 0.00 | 0.00 | 0.00 | 68 | 1005.0 |
| 20260505174346 | 28 | 197 | 6.4 | 11.3 | 0.00 | 0.00 | 0.00 | 67 | 1005.1 |
| 20260505173842 | 27 | 128 | 3.2 | 22.5 | 0.00 | 0.00 | 0.00 | 69 | 1005.3 |
| 20260505173334 | 27 | 247 | 6.4 | 20.9 | 0.00 | 0.00 | 0.00 | 69 | 1005.1 |
| 20260505172831 | 27 | 209 | 9.7 | 25.7 | 0.00 | 0.00 | 0.00 | 69 | 1005.3 |
| 20260505172328 | 27 | 231 | 17.7 | 25.7 | 0.00 | 0.00 | 0.00 | 69 | 1005.4 |
| 20260505171827 | 27 | 225 | 11.3 | 16.1 | 0.00 | 0.00 | 0.00 | 70 | 1005.2 |
| 20260505171324 | 27 | 230 | 14.5 | 20.9 | 0.00 | 0.00 | 0.00 | 70 | 1005.3 |
| 20260505170821 | 26 | 218 | 6.4 | 17.7 | 0.00 | 0.00 | 0.00 | 71 | 1005.3 |
| 20260505170318 | 26 | 240 | 1.6 | 14.5 | 0.00 | 0.00 | 0.00 | 71 | 1005.4 |
| 20260505165813 | 27 | 197 | 6.4 | 9.7 | 0.00 | 0.00 | 0.00 | 70 | 1005.5 |
| 20260505165309 | 26 | 215 | 11.3 | 22.5 | 0.00 | 0.00 | 0.00 | 71 | 1005.3 |
| 20260505164804 | 26 | 181 | 3.2 | 19.3 | 0.00 | 0.00 | 0.00 | 71 | 1005.3 |
| 20260505164302 | 26 | 221 | 8.0 | 16.1 | 0.00 | 0.00 | 0.00 | 72 | 1005.2 |
| 20260505163800 | 26 | 226 | 8.0 | 24.1 | 0.00 | 0.00 | 0.00 | 72 | 1005.2 |
| 20260505163258 | 26 | 255 | 4.8 | 8.0 | 0.00 | 0.00 | 0.00 | 71 | 1005.1 |
| 20260505162756 | 26 | 216 | 6.4 | 27.4 | 0.00 | 0.00 | 0.00 | 72 | 1005.0 |
| 20260505162252 | 26 | 217 | 8.0 | 27.4 | 0.00 | 0.00 | 0.00 | 72 | 1005.2 |
| 20260505161749 | 26 | 247 | 6.4 | 20.9 | 0.00 | 0.00 | 0.00 | 73 | 1005.2 |
| 20260505161247 | 25 | 203 | 4.8 | 22.5 | 0.00 | 0.00 | 0.00 | 73 | 1005.3 |
| 20260505160744 | 25 | 215 | 9.7 | 30.6 | 0.00 | 0.00 | 0.00 | 73 | 1005.2 |
| 20260505160242 | 25 | 226 | 6.4 | 22.5 | 0.00 | 0.00 | 0.00 | 73 | 1005.2 |
| 20260505153221 | 25 | 211 | 6.4 | 24.1 | 0.00 | 0.00 | 0.00 | 74 | 1004.8 |
| 20260505152718 | 25 | 168 | 6.4 | 17.7 | 0.00 | 0.00 | 0.00 | 75 | 1004.6 |
| 20260505152214 | 25 | 220 | 6.4 | 19.3 | 0.00 | 0.00 | 0.00 | 75 | 1004.9 |
| 20260505151709 | 25 | 209 | 3.2 | 20.9 | 0.00 | 0.00 | 0.00 | 76 | 1004.9 |
| 20260505151206 | 24 | 216 | 8.0 | 12.9 | 0.00 | 0.00 | 0.00 | 77 | 1005.1 |
| 20260505150702 | 24 | 238 | 9.7 | 24.1 | 0.00 | 0.00 | 0.00 | 77 | 1005.1 |
| 20260505150201 | 24 | 216 | 8.0 | 25.7 | 0.00 | 0.00 | 0.00 | 77 | 1005.0 |
| 20260505140633 | 23 | 123 | 3.2 | 11.3 | 0.00 | 0.00 | 0.00 | 81 | 1005.0 |
| 20260505140130 | 23 | 221 | 6.4 | 17.7 | 0.00 | 0.00 | 0.00 | 81 | 1005.0 |
| 20260505124544 | 22 | 252 | 6.4 | 8.0 | 0.00 | 0.00 | 0.00 | 83 | 1004.7 |
| 20260505124040 | 22 | 212 | 12.9 | 14.5 | 0.00 | 0.00 | 0.00 | 83 | 1004.6 |
| 20260505123537 | 22 | 219 | 3.2 | 9.7 | 0.00 | 0.00 | 0.00 | 84 | 1004.5 |
| 20260505123033 | 22 | 187 | 3.2 | 11.3 | 0.00 | 0.00 | 0.00 | 83 | 1004.2 |
| 20260505122530 | 22 | 212 | 8.0 | 17.7 | 0.00 | 0.00 | 0.00 | 83 | 1004.3 |
| 20260505122027 | 22 | 209 | 12.9 | 20.9 | 0.00 | 0.00 | 0.00 | 83 | 1004.3 |
| 20260505121523 | 22 | 224 | 8.0 | 17.7 | 0.00 | 0.00 | 0.00 | 83 | 1004.4 |
| 20260505121020 | 22 | 222 | 9.7 | 20.9 | 0.00 | 0.00 | 0.00 | 83 | 1004.3 |
| 20260505120516 | 22 | 188 | 6.4 | 17.7 | 0.00 | 0.00 | 0.00 | 82 | 1004.1 |
| 20260505120012 | 22 | 214 | 6.4 | 12.9 | 0.00 | 0.00 | 0.00 | 83 | 1004.1 |
| 20260505115507 | 22 | 206 | 6.4 | 20.9 | 0.00 | 0.00 | 0.00 | 82 | 1004.2 |
| 20260505115005 | 22 | 72 | 4.8 | 19.3 | 0.00 | 0.00 | 0.00 | 82 | 1003.9 |
| 20260505114502 | 22 | 221 | 4.8 | 11.3 | 0.00 | 0.00 | 0.00 | 83 | 1003.8 |
| 20260505113958 | 22 | 233 | 12.9 | 16.1 | 0.00 | 0.00 | 0.00 | 83 | 1003.8 |
| 20260505113455 | 22 | 214 | 16.1 | 22.5 | 0.00 | 0.00 | 0.00 | 82 | 1003.9 |
| 20260505112950 | 22 | 204 | 3.2 | 9.7 | 0.00 | 0.00 | 0.00 | 82 | 1004.0 |
| 20260505112447 | 22 | 225 | 8.0 | 25.7 | 0.00 | 0.00 | 0.00 | 82 | 1004.0 |
| 20260505111944 | 22 | 166 | 4.8 | 22.5 | 0.00 | 0.00 | 0.00 | 82 | 1003.6 |
| 20260505111438 | 22 | 220 | 22.5 | 24.1 | 0.00 | 0.00 | 0.00 | 82 | 1003.9 |
| 20260505110935 | 22 | 153 | 8.0 | 20.9 | 0.00 | 0.00 | 0.00 | 82 | 1004.2 |
| 20260505110432 | 22 | 230 | 8.0 | 20.9 | 0.00 | 0.00 | 0.00 | 83 | 1004.1 |
| 20260505101903 | 22 | 224 | 6.4 | 11.3 | 0.00 | 0.00 | 0.00 | 83 | 1004.0 |
| 20260505101358 | 22 | 227 | 4.8 | 16.1 | 0.00 | 0.00 | 0.00 | 83 | 1004.0 |
| 20260505100854 | 22 | 190 | 4.8 | 12.9 | 0.00 | 0.00 | 0.00 | 83 | 1004.0 |
| 20260505100350 | 22 | 198 | 4.8 | 11.3 | 0.00 | 0.00 | 0.00 | 83 | 1004.0 |
| 20260505095846 | 22 | 204 | 11.3 | 30.6 | 0.00 | 0.00 | 0.00 | 83 | 1004.0 |
| 20260505095344 | 22 | 120 | 6.4 | 16.1 | 0.00 | 0.00 | 0.00 | 83 | 1004.1 |
| 20260505094839 | 22 | 169 | 6.4 | 8.0 | 0.00 | 0.00 | 0.00 | 83 | 1004.1 |
| 20260505094337 | 22 | 201 | 3.2 | 16.1 | 0.00 | 0.00 | 0.00 | 83 | 1004.1 |
| 20260505093832 | 22 | 208 | 3.2 | 27.4 | 0.00 | 0.00 | 0.00 | 83 | 1004.2 |
| 20260505093330 | 22 | 215 | 12.9 | 14.5 | 0.00 | 0.00 | 0.00 | 83 | 1004.2 |
| 20260505092827 | 22 | 17 | 4.8 | 8.0 | 0.00 | 0.00 | 0.00 | 83 | 1004.2 |
| 20260505092325 | 21 | 353 | 3.2 | 9.7 | 0.00 | 0.00 | 0.00 | 84 | 1004.4 |
| 20260505091822 | 22 | 230 | 8.0 | 12.9 | 0.00 | 0.00 | 0.00 | 83 | 1004.6 |
| 20260505091320 | 22 | 196 | 4.8 | 9.7 | 0.00 | 0.00 | 0.00 | 83 | 1004.4 |
| 20260505090818 | 22 | 235 | 4.8 | 17.7 | 0.00 | 0.00 | 0.00 | 83 | 1004.5 |
| 20260505090316 | 21 | 210 | 6.4 | 16.1 | 0.00 | 0.00 | 0.00 | 84 | 1004.5 |
| 20260505085813 | 21 | 204 | 9.7 | 11.3 | 0.00 | 0.00 | 0.00 | 84 | 1004.4 |
| 20260505085311 | 21 | 181 | 6.4 | 11.3 | 0.00 | 0.00 | 0.00 | 84 | 1004.4 |
| 20260505084808 | 21 | 180 | 8.0 | 14.5 | 0.00 | 0.00 | 0.00 | 84 | 1004.4 |
| 20260505084307 | 21 | 230 | 3.2 | 14.5 | 0.00 | 0.00 | 0.00 | 84 | 1004.3 |
| 20260505083803 | 21 | 191 | 3.2 | 9.7 | 0.00 | 0.00 | 0.00 | 84 | 1004.4 |
| 20260505083300 | 21 | 232 | 17.7 | 19.3 | 0.00 | 0.00 | 0.00 | 84 | 1004.3 |
| 20260505082756 | 21 | 193 | 8.0 | 14.5 | 0.00 | 0.00 | 0.00 | 84 | 1004.3 |
| 20260505082254 | 21 | 170 | 6.4 | 12.9 | 0.00 | 0.00 | 0.00 | 83 | 1004.5 |
| 20260505081749 | 21 | 159 | 3.2 | 17.7 | 0.00 | 0.00 | 0.00 | 83 | 1004.6 |
| 20260505081247 | 21 | 208 | 3.2 | 16.1 | 0.00 | 0.00 | 0.00 | 83 | 1004.5 |
| 20260505080744 | 21 | 152 | 6.4 | 8.0 | 0.00 | 0.00 | 0.00 | 83 | 1004.5 |
| 20260505080239 | 21 | 136 | 1.6 | 8.0 | 0.00 | 0.00 | 0.00 | 82 | 1004.5 |
| 20260505075735 | 22 | 163 | 8.0 | 8.0 | 0.00 | 0.00 | 0.00 | 82 | 1004.7 |
| 20260505075232 | 22 | 152 | 1.6 | 11.3 | 0.00 | 0.00 | 0.00 | 82 | 1004.7 |
| 20260505074730 | 22 | 233 | 6.4 | 14.5 | 0.00 | 0.00 | 0.00 | 82 | 1004.7 |
| 20260505074227 | 22 | 187 | 8.0 | 17.7 | 0.00 | 0.00 | 0.00 | 81 | 1004.8 |
| 20260505073724 | 22 | 167 | 4.8 | 8.0 | 0.00 | 0.00 | 0.00 | 81 | 1004.9 |
| 20260505073222 | 22 | 176 | 3.2 | 14.5 | 0.00 | 0.00 | 0.00 | 81 | 1004.9 |
| 20260505072718 | 22 | 257 | 3.2 | 11.3 | 0.00 | 0.00 | 0.00 | 80 | 1005.1 |
| 20260505072214 | 22 | 227 | 22.5 | 24.1 | 0.00 | 0.00 | 0.00 | 80 | 1005.1 |
| 20260505071710 | 22 | 229 | 8.0 | 20.9 | 0.00 | 0.00 | 0.00 | 80 | 1005.2 |
| 20260505071207 | 22 | 230 | 6.4 | 8.0 | 0.00 | 0.00 | 0.00 | 80 | 1005.2 |
| 20260505070705 | 22 | 246 | 4.8 | 16.1 | 0.00 | 0.00 | 0.00 | 79 | 1005.2 |
| 20260505070201 | 22 | 216 | 8.0 | 12.9 | 0.00 | 0.00 | 0.00 | 79 | 1005.4 |
| 20260505065657 | 22 | 244 | 4.8 | 16.1 | 0.00 | 0.00 | 0.00 | 79 | 1005.5 |
| 20260505065154 | 22 | 206 | 9.7 | 14.5 | 0.00 | 0.00 | 0.00 | 79 | 1005.6 |
| 20260505064651 | 22 | 189 | 3.2 | 6.4 | 0.00 | 0.00 | 0.00 | 78 | 1005.6 |
| 20260505064149 | 22 | 143 | 4.8 | 9.7 | 0.00 | 0.00 | 0.00 | 78 | 1005.6 |
| 20260505063646 | 22 | 75 | 3.2 | 8.0 | 0.00 | 0.00 | 0.00 | 78 | 1005.7 |
| 20260505063142 | 22 | 149 | 4.8 | 9.7 | 0.00 | 0.00 | 0.00 | 78 | 1005.8 |
| 20260505062638 | 22 | 181 | 4.8 | 17.7 | 0.00 | 0.00 | 0.00 | 78 | 1005.8 |
| 20260505062136 | 22 | 277 | 1.6 | 8.0 | 0.00 | 0.00 | 0.00 | 78 | 1005.7 |
| 20260505061633 | 22 | 173 | 6.4 | 9.7 | 0.00 | 0.00 | 0.00 | 77 | 1005.6 |
| 20260505061131 | 22 | 119 | 6.4 | 9.7 | 0.00 | 0.00 | 0.00 | 77 | 1005.8 |
| 20260505060628 | 22 | 234 | 6.4 | 8.0 | 0.00 | 0.00 | 0.00 | 77 | 1005.7 |
| 20260505060125 | 22 | 332 | 3.2 | 14.5 | 0.00 | 0.00 | 0.00 | 77 | 1005.8 |
| 20260505055620 | 22 | 190 | 6.4 | 19.3 | 0.00 | 0.00 | 0.00 | 76 | 1005.8 |
| 20260505055117 | 22 | 149 | 12.9 | 19.3 | 0.00 | 0.00 | 0.00 | 76 | 1005.6 |
| 20260505054614 | 22 | 202 | 1.6 | 11.3 | 0.00 | 0.00 | 0.00 | 76 | 1005.9 |
| 20260505054112 | 22 | 181 | 6.4 | 16.1 | 0.00 | 0.00 | 0.00 | 76 | 1005.8 |
| 20260505053609 | 22 | 163 | 4.8 | 8.0 | 0.00 | 0.00 | 0.00 | 75 | 1005.8 |
| 20260505053106 | 22 | 256 | 0.0 | 8.0 | 0.00 | 0.00 | 0.00 | 75 | 1005.9 |
| 20260505052603 | 22 | 172 | 6.4 | 12.9 | 0.00 | 0.00 | 0.00 | 75 | 1006.0 |
| 20260505052100 | 22 | 156 | 8.0 | 14.5 | 0.00 | 0.00 | 0.00 | 74 | 1005.9 |
| 20260505051557 | 22 | 197 | 4.8 | 16.1 | 0.00 | 0.00 | 0.00 | 74 | 1006.1 |
| 20260505051055 | 23 | 178 | 6.4 | 14.5 | 0.00 | 0.00 | 0.00 | 74 | 1006.1 |
| 20260505050553 | 23 | 210 | 3.2 | 17.7 | 0.00 | 0.00 | 0.00 | 73 | 1006.3 |
| 20260505041521 | 23 | 178 | 4.8 | 11.3 | 0.00 | 0.00 | 0.00 | 71 | 1006.2 |
| 20260505041018 | 23 | 241 | 4.8 | 11.3 | 0.00 | 0.00 | 0.00 | 71 | 1006.4 |
| 20260505040515 | 23 | 195 | 3.2 | 9.7 | 0.00 | 0.00 | 0.00 | 71 | 1006.4 |
| 20260505040012 | 23 | 285 | 3.2 | 12.9 | 0.00 | 0.00 | 0.00 | 71 | 1006.3 |
| 20260505035508 | 23 | 241 | 3.2 | 14.5 | 0.00 | 0.00 | 0.00 | 70 | 1006.3 |
| 20260505035005 | 23 | 147 | 6.4 | 14.5 | 0.00 | 0.00 | 0.00 | 70 | 1006.3 |
| 20260505034501 | 23 | 215 | 6.4 | 11.3 | 0.00 | 0.00 | 0.00 | 70 | 1006.2 |
| 20260505033959 | 23 | 223 | 3.2 | 8.0 | 0.00 | 0.00 | 0.00 | 70 | 1006.0 |
| 20260505033455 | 23 | 179 | 3.2 | 14.5 | 0.00 | 0.00 | 0.00 | 69 | 1006.3 |
| 20260505032954 | 23 | 225 | 0.0 | 6.4 | 0.00 | 0.00 | 0.00 | 69 | 1006.4 |
| 20260505032451 | 23 | 180 | 3.2 | 12.9 | 0.00 | 0.00 | 0.00 | 69 | 1006.5 |
| 20260505031947 | 23 | 138 | 6.4 | 8.0 | 0.00 | 0.00 | 0.00 | 69 | 1006.2 |
| 20260505031444 | 23 | 207 | 0.0 | 6.4 | 0.00 | 0.00 | 0.00 | 69 | 1006.3 |
| 20260505030941 | 23 | 158 | 4.8 | 9.7 | 0.00 | 0.00 | 0.00 | 69 | 1006.4 |
| 20260505030437 | 23 | 212 | 4.8 | 9.7 | 0.00 | 0.00 | 0.00 | 69 | 1006.4 |
| 20260505025932 | 23 | 163 | 6.4 | 12.9 | 0.00 | 0.00 | 0.00 | 68 | 1006.4 |
| 20260505025430 | 23 | 208 | 6.4 | 9.7 | 0.00 | 0.00 | 0.00 | 68 | 1006.4 |
| 20260505024929 | 23 | 124 | 3.2 | 14.5 | 0.00 | 0.00 | 0.00 | 68 | 1006.6 |
| 20260505024426 | 23 | 164 | 1.6 | 6.4 | 0.00 | 0.00 | 0.00 | 68 | 1006.5 |
| 20260505023923 | 23 | 124 | 3.2 | 8.0 | 0.00 | 0.00 | 0.00 | 68 | 1006.2 |
| 20260505023420 | 23 | 257 | 0.0 | 9.7 | 0.00 | 0.00 | 0.00 | 68 | 1006.3 |
| 20260505022917 | 23 | 183 | 1.6 | 6.4 | 0.00 | 0.00 | 0.00 | 68 | 1006.3 |
| 20260505022415 | 23 | 169 | 4.8 | 6.4 | 0.00 | 0.00 | 0.00 | 68 | 1006.4 |
| 20260505021911 | 23 | 238 | 9.7 | 9.7 | 0.00 | 0.00 | 0.00 | 68 | 1006.2 |
| 20260505021408 | 24 | 142 | 8.0 | 32.2 | 0.00 | 0.00 | 0.00 | 67 | 1006.3 |
| 20260505020903 | 23 | 149 | 4.8 | 19.3 | 0.00 | 0.00 | 0.00 | 67 | 1006.1 |
| 20260505020359 | 24 | 168 | 3.2 | 6.4 | 0.00 | 0.00 | 0.00 | 67 | 1006.1 |
| 20260505015856 | 24 | 153 | 3.2 | 8.0 | 0.00 | 0.00 | 0.00 | 67 | 1006.2 |
| 20260505015353 | 24 | 215 | 3.2 | 8.0 | 0.00 | 0.00 | 0.00 | 67 | 1006.1 |
| 20260505014851 | 24 | 166 | 3.2 | 11.3 | 0.00 | 0.00 | 0.00 | 67 | 1006.3 |
| 20260505014347 | 24 | 213 | 3.2 | 9.7 | 0.00 | 0.00 | 0.00 | 66 | 1006.3 |
| 20260505013844 | 24 | 199 | 1.6 | 9.7 | 0.00 | 0.00 | 0.00 | 66 | 1006.3 |
| 20260505013341 | 24 | 170 | 4.8 | 25.7 | 0.00 | 0.00 | 0.00 | 66 | 1006.1 |
| 20260505012840 | 25 | 164 | 6.4 | 16.1 | 0.00 | 0.00 | 0.00 | 65 | 1006.2 |
| 20260505012337 | 25 | 158 | 3.2 | 8.0 | 0.00 | 0.00 | 0.00 | 65 | 1006.2 |
| 20260505011833 | 25 | 206 | 14.5 | 14.5 | 0.00 | 0.00 | 0.00 | 65 | 1006.0 |
| 20260505011330 | 25 | 272 | 3.2 | 12.9 | 0.00 | 0.00 | 0.00 | 65 | 1006.2 |
| 20260505010826 | 25 | 149 | 6.4 | 17.7 | 0.00 | 0.00 | 0.00 | 65 | 1006.1 |
| 20260505010322 | 25 | 224 | 6.4 | 12.9 | 0.00 | 0.00 | 0.00 | 64 | 1005.9 |
| 20260505005818 | 25 | 129 | 1.6 | 4.8 | 0.00 | 0.00 | 0.00 | 64 | 1006.1 |
| 20260505005315 | 25 | 194 | 3.2 | 6.4 | 0.00 | 0.00 | 0.00 | 64 | 1006.0 |
| 20260505004813 | 25 | 245 | 3.2 | 6.4 | 0.00 | 0.00 | 0.00 | 63 | 1006.2 |
| 20260505004309 | 25 | 159 | 4.8 | 11.3 | 0.00 | 0.00 | 0.00 | 63 | 1006.0 |
| 20260505003806 | 25 | 197 | 3.2 | 14.5 | 0.00 | 0.00 | 0.00 | 62 | 1006.2 |
| 20260505003304 | 25 | 192 | 4.8 | 19.3 | 0.00 | 0.00 | 0.00 | 62 | 1006.3 |
| 20260505002759 | 25 | 179 | 11.3 | 17.7 | 0.00 | 0.00 | 0.00 | 62 | 1006.1 |
| 20260505002257 | 25 | 210 | 3.2 | 24.1 | 0.00 | 0.00 | 0.00 | 61 | 1006.1 |
| 20260505001755 | 25 | 142 | 4.8 | 16.1 | 0.00 | 0.00 | 0.00 | 61 | 1006.3 |
| 20260505001252 | 25 | 212 | 14.5 | 25.7 | 0.00 | 0.00 | 0.00 | 60 | 1006.4 |
| 20260505000749 | 26 | 235 | 4.8 | 8.0 | 0.00 | 0.00 | 0.00 | 60 | 1006.3 |
| 20260505000247 | 26 | 190 | 9.7 | 14.5 | 0.00 | 0.00 | 0.00 | 60 | 1006.1 |
| 20260504235743 | 26 | 197 | 6.4 | 20.9 | 0.00 | 0.00 | 0.00 | 60 | 1006.1 |
| 20260504235239 | 26 | 190 | 9.7 | 12.9 | 0.00 | 0.00 | 0.00 | 60 | 1006.3 |
| 20260504234737 | 26 | 244 | 8.0 | 20.9 | 0.00 | 0.00 | 0.00 | 60 | 1006.4 |
| 20260504234233 | 26 | 206 | 6.4 | 11.3 | 0.00 | 0.00 | 0.00 | 60 | 1006.4 |
| 20260504233730 | 26 | 252 | 1.6 | 19.3 | 0.00 | 0.00 | 0.00 | 60 | 1006.4 |
| 20260504233225 | 26 | 220 | 16.1 | 19.3 | 0.00 | 0.00 | 0.00 | 59 | 1006.5 |
| 20260504232723 | 26 | 190 | 6.4 | 24.1 | 0.00 | 0.00 | 0.00 | 59 | 1006.4 |
| 20260504232219 | 26 | 194 | 3.2 | 11.3 | 0.00 | 0.00 | 0.00 | 59 | 1006.3 |
| 20260504231716 | 26 | 180 | 4.8 | 16.1 | 0.00 | 0.00 | 0.00 | 59 | 1006.4 |